Info for pilots

Image

Airfield Info:

EBUL
N51 08.7 - E003 28.6
ELEV 95' / 29m
RWY 07 / 25
799m * 45m (CIV) - 2980m (MIL)
Ursel Radio 135.130
Tel Aero Club Brugge : +32(0)9 374 25 75
Tel Vliegclub Ursel : +32(0)9 374 12 90

Operational Hours
FRI: 14h00LT - SS+30 MIN
SAT, SUN and HOL: TKOF and LDG: 10h00LT - SS+30 MIN
After 20h00LT to SS+30 MIN: only LDG allowed (PN)

Local Traffic Regulations
The use of the AD is subject to PPR from the OPR;
AD given in concession to the CIV club outside MIL ACT;
Solo training flights can only be performed after two reconnaissance flights with instructor. The solo training flight must be performed within six weeks after the first reconnaissance flight;
Jet aircraft operations not allowed.

Obstacles:
trees between 10M AGL and 22M AGL, caution when crosswind:
North of the RWY, 75M from CL, along the whole length of the RWY;
South of the RWY, 75M from CL, and at THR RWY 25 from THR RWY 07 to 140M east of THR RWY 07



Image

Image

Watch out!

Flight Procedures
RWY 07 and 25 left hand circuit, 1.200 FT QNH

Image

Taxi procedures:
RWY 07 (TKOF):
taxi on the north side of the RWY to the HLDG position of RWY 07

RWY 07 (LDG):
after landing roll out to the second intersection (THR RWY 25), turn left, turn left again, taxi via the TWY to the first intersection, turn left, cross the RWY (check for landing ACFT), taxi on the south side of the RWY to the AD reporting office

RWY 25 (TKOF):
taxi on the north side of the first intersection, turn left, next turn right, taxi via the TWY to the second intersection, turn right, taxi to the HLDG of RWY 25

RWY 25 (LDG):
after landing roll out to the end of the RWY, taxi on the south side of the RWY to the AD reporting office.





Image

Taxi & Circuit?

Image
Image
Image
Image

Current Metars - Auto refresh

EBOS - Oostende
2020/01/17 14:20 EBOS 171420Z 23023KT 9999 FEW025 09/04 Q1013 TEMPO 23020G30KT


EBAW - Antwerpen
2020/01/17 14:20 EBAW 171420Z 25009KT 220V280 9999 FEW024 BKN035 11/05 Q1014 NOSIG


EBBR - Brussel
2020/01/17 14:20 EBBR 171420Z 24013KT 9999 SCT025 10/06 Q1014 NOSIG

Source : NOAA.GOV

Current TAFs - Auto refresh

EBOS - Oostende
2020/01/17 12:27 TAF EBOS 171120Z 1712/1818 22013KT 9999 FEW015 BKN020 TEMPO 1712/1720 25024G35KT 3500 SHRAGS BKN014CB PROB40 TEMPO 1720/1805 24015G25KT 4500 SHRA BKN014CB BECMG 1806/1808 30014KT

EBAW - Antwerpen
2020/01/17 12:27 TAF TAF EBAW 171120Z 1712/1721 22010KT 9999 FEW015 BKN020 TEMPO 1712/1721 24015G25KT

EBBR - Brussel
2020/01/17 12:27 TAF TAF EBBR 171120Z 1712/1818 22010KT 9999 FEW015 BKN020 TEMPO 1712/1722 24015G25KT PROB30 TEMPO 1722/1804 24015G25KT 4500 SHRA BKN014TCU

Source : NOAA.GOV
Image

Webcam

Direction runway 07 :